| time (UTC) | temp F | wind direction | speed MPH | gust MPH | rain 1hr in | rain 24hr in | rain mn in | humidity % | barometer mb |
| 20260510153138 | 70 | 339 | 2.0 | 6.0 | 0.00 | 0.12 | 0.00 | 86 | 1017.6 |
| 20260510152638 | 70 | 274 | 1.0 | 4.0 | 0.00 | 0.14 | 0.00 | 87 | 1017.6 |
| 20260510152136 | 70 | 268 | 1.0 | 4.0 | 0.00 | 0.15 | 0.00 | 88 | 1017.5 |
| 20260510151636 | 70 | 276 | 1.0 | 4.0 | 0.00 | 0.16 | 0.00 | 88 | 1017.4 |
| 20260510151136 | 70 | 315 | 2.0 | 4.0 | 0.00 | 0.17 | 0.00 | 89 | 1017.4 |
| 20260510150640 | 69 | 278 | 2.0 | 4.0 | 0.00 | 0.18 | 0.00 | 90 | 1017.4 |
| 20260510150636 | 69 | 46 | 1.0 | 4.0 | 0.00 | 0.19 | 0.00 | 90 | 1017.4 |
| 20260510145636 | 69 | 335 | 2.0 | 4.0 | 0.00 | 0.20 | 0.00 | 92 | 1017.3 |
| 20260510145136 | 69 | 342 | 2.0 | 5.0 | 0.00 | 0.21 | 0.00 | 92 | 1017.4 |
| 20260510144636 | 69 | 352 | 1.0 | 5.0 | 0.00 | 0.22 | 0.00 | 92 | 1017.6 |
| 20260510144136 | 69 | 3 | 1.0 | 4.0 | 0.00 | 0.23 | 0.00 | 93 | 1017.6 |
| 20260510143635 | 69 | 320 | 1.0 | 3.0 | 0.00 | 0.23 | 0.00 | 92 | 1017.6 |
| 20260510143134 | 69 | 339 | 1.0 | 3.0 | 0.00 | 0.23 | 0.00 | 93 | 1017.6 |
| 20260510142634 | 68 | 304 | 0.0 | 3.0 | 0.00 | 0.23 | 0.00 | 93 | 1017.5 |
| 20260510142134 | 68 | 304 | 0.0 | 3.0 | 0.00 | 0.23 | 0.00 | 93 | 1017.4 |
| 20260510141634 | 68 | 304 | 0.0 | 2.0 | 0.00 | 0.23 | 0.00 | 93 | 1017.6 |
| 20260510141136 | 68 | 317 | 0.0 | 2.0 | 0.00 | 0.23 | 0.00 | 93 | 1017.7 |
| 20260510141131 | 67 | 333 | 0.0 | 1.0 | 0.00 | 0.23 | 0.00 | 94 | 1017.5 |
| 20260510140734 | 68 | 333 | 0.0 | 1.0 | 0.00 | 0.23 | 0.00 | 94 | 1017.5 |
| 20260510135630 | 67 | 332 | 0.0 | 0.0 | 0.00 | 0.23 | 0.00 | 94 | 1017.5 |
| 20260510135130 | 67 | 333 | 0.0 | 0.0 | 0.00 | 0.23 | 0.00 | 94 | 1017.4 |
| 20260510134629 | 67 | 332 | 0.0 | 0.0 | 0.00 | 0.23 | 0.00 | 94 | 1017.3 |
| 20260510134128 | 67 | 332 | 0.0 | 1.0 | 0.00 | 0.23 | 0.00 | 94 | 1017.2 |
| 20260510133628 | 67 | 332 | 0.0 | 1.0 | 0.00 | 0.23 | 0.00 | 94 | 1017.2 |
| 20260510133127 | 67 | 333 | 0.0 | 1.0 | 0.00 | 0.23 | 0.00 | 94 | 1017.2 |
| 20260510132628 | 67 | 333 | 0.0 | 0.0 | 0.00 | 0.23 | 0.00 | 94 | 1017.1 |
| 20260510132132 | 66 | 333 | 0.0 | 2.0 | 0.00 | 0.23 | 0.00 | 94 | 1017.1 |
| 20260510132128 | 66 | 333 | 0.0 | 1.0 | 0.00 | 0.23 | 0.00 | 94 | 1017.0 |
| 20260510131625 | 66 | 333 | 0.0 | 1.0 | 0.00 | 0.23 | 0.00 | 95 | 1017.1 |
| 20260510130624 | 66 | 333 | 0.0 | 2.0 | 0.00 | 0.24 | 0.00 | 95 | 1017.1 |
| 20260510130125 | 65 | 333 | 1.0 | 2.0 | 0.00 | 0.31 | 0.00 | 94 | 1017.0 |
| 20260510130121 | 65 | 333 | 1.0 | 2.0 | 0.00 | 0.31 | 0.00 | 95 | 1017.1 |
| 20260510125119 | 65 | 330 | 0.0 | 2.0 | 0.00 | 0.32 | 0.00 | 94 | 1016.9 |
| 20260510124620 | 65 | 333 | 0.0 | 2.0 | 0.00 | 0.32 | 0.00 | 94 | 1016.8 |
| 20260510124120 | 65 | 333 | 1.0 | 2.0 | 0.00 | 0.32 | 0.00 | 95 | 1016.8 |
| 20260510123620 | 65 | 338 | 1.0 | 2.0 | 0.00 | 0.32 | 0.00 | 94 | 1016.8 |
| 20260510123123 | 65 | 317 | 0.0 | 0.0 | 0.00 | 0.32 | 0.00 | 95 | 1016.5 |
| 20260510123119 | 65 | 323 | 0.0 | 2.0 | 0.00 | 0.32 | 0.00 | 95 | 1016.7 |
| 20260510122118 | 65 | 345 | 0.0 | 0.0 | 0.00 | 0.32 | 0.00 | 95 | 1016.6 |
| 20260510121609 | 65 | 345 | 0.0 | 0.0 | 0.00 | 0.32 | 0.00 | 95 | 1016.6 |
| 20260510121110 | 64 | 345 | 0.0 | 0.0 | 0.00 | 0.32 | 0.00 | 95 | 1016.5 |
| 20260510120610 | 64 | 345 | 0.0 | 0.0 | 0.00 | 0.32 | 0.00 | 95 | 1016.4 |
| 20260510120109 | 64 | 345 | 0.0 | 0.0 | 0.00 | 0.32 | 0.00 | 95 | 1016.4 |
| 20260510115610 | 64 | 345 | 0.0 | 0.0 | 0.00 | 0.32 | 0.00 | 95 | 1016.3 |
| 20260510115108 | 64 | 345 | 0.0 | 0.0 | 0.00 | 0.32 | 0.00 | 95 | 1016.2 |
| 20260510114607 | 64 | 345 | 0.0 | 0.0 | 0.00 | 0.32 | 0.00 | 95 | 1016.2 |
| 20260510114112 | 63 | 345 | 0.0 | 0.0 | 0.00 | 0.32 | 0.00 | 95 | 1015.9 |
| 20260510114108 | 63 | 345 | 0.0 | 0.0 | 0.00 | 0.32 | 0.00 | 95 | 1016.1 |
| 20260510113109 | 63 | 345 | 0.0 | 0.0 | 0.00 | 0.32 | 0.00 | 94 | 1015.7 |
| 20260510112608 | 63 | 345 | 0.0 | 0.0 | 0.00 | 0.32 | 0.00 | 94 | 1015.6 |
| 20260510112111 | 63 | 345 | 0.0 | 0.0 | 0.00 | 0.32 | 0.00 | 94 | 1015.4 |
| 20260510112107 | 63 | 345 | 0.0 | 0.0 | 0.00 | 0.32 | 0.00 | 94 | 1015.5 |
| 20260510111108 | 63 | 345 | 0.0 | 0.0 | 0.00 | 0.32 | 0.00 | 95 | 1015.2 |
| 20260510110605 | 63 | 345 | 0.0 | 0.0 | 0.00 | 0.32 | 0.00 | 95 | 1015.1 |
| 20260510110106 | 63 | 345 | 0.0 | 0.0 | 0.00 | 0.32 | 0.00 | 95 | 1015.1 |
| 20260510105606 | 63 | 345 | 0.0 | 0.0 | 0.00 | 0.32 | 0.00 | 95 | 1015.0 |
| 20260510105109 | 63 | 345 | 0.0 | 0.0 | 0.00 | 0.32 | 0.00 | 95 | 1015.0 |
| 20260510105105 | 63 | 345 | 0.0 | 0.0 | 0.00 | 0.32 | 0.00 | 95 | 1015.0 |
| 20260510104104 | 63 | 345 | 0.0 | 0.0 | 0.00 | 0.32 | 0.00 | 95 | 1014.9 |
| 20260510103601 | 63 | 344 | 0.0 | 0.0 | 0.00 | 0.32 | 0.00 | 95 | 1014.7 |
| 20260510103101 | 63 | 345 | 0.0 | 0.0 | 0.00 | 0.32 | 0.00 | 95 | 1014.8 |
| 20260510102606 | 63 | 11 | 0.0 | 0.0 | 0.00 | 0.32 | 0.00 | 94 | 1014.8 |
| 20260510102602 | 63 | 343 | 0.0 | 0.0 | 0.00 | 0.32 | 0.00 | 95 | 1014.8 |
| 20260510101601 | 63 | 11 | 0.0 | 0.0 | 0.00 | 0.32 | 0.00 | 94 | 1014.7 |
| 20260510101102 | 63 | 11 | 0.0 | 0.0 | 0.00 | 0.32 | 0.00 | 94 | 1014.6 |
| 20260510100557 | 63 | 11 | 0.0 | 0.0 | 0.00 | 0.32 | 0.00 | 94 | 1014.6 |
| 20260510100058 | 63 | 11 | 0.0 | 0.0 | 0.00 | 0.32 | 0.00 | 94 | 1014.5 |
| 20260510095600 | 63 | 11 | 0.0 | 0.0 | 0.00 | 0.32 | 0.00 | 94 | 1014.3 |
| 20260510095555 | 63 | 11 | 0.0 | 0.0 | 0.00 | 0.32 | 0.00 | 94 | 1014.5 |
| 20260510094556 | 63 | 11 | 0.0 | 0.0 | 0.00 | 0.32 | 0.00 | 94 | 1014.4 |
| 20260510094054 | 63 | 11 | 0.0 | 0.0 | 0.00 | 0.32 | 0.00 | 94 | 1014.3 |
| 20260510093556 | 63 | 11 | 0.0 | 0.0 | 0.00 | 0.32 | 0.00 | 94 | 1014.4 |
| 20260510093054 | 63 | 11 | 0.0 | 0.0 | 0.00 | 0.32 | 0.00 | 94 | 1014.2 |
| 20260510092557 | 63 | 11 | 0.0 | 0.0 | 0.00 | 0.32 | 0.00 | 94 | 1014.0 |
| 20260510092553 | 63 | 11 | 0.0 | 0.0 | 0.00 | 0.32 | 0.00 | 94 | 1014.1 |
| 20260510092158 | 63 | 11 | 0.0 | 0.0 | 0.00 | 0.32 | 0.00 | 94 | 1014.1 |
| 20260510091053 | 63 | 355 | 0.0 | 0.0 | 0.00 | 0.32 | 0.00 | 94 | 1014.0 |
| 20260510090554 | 63 | 355 | 0.0 | 0.0 | 0.00 | 0.32 | 0.00 | 94 | 1014.0 |
| 20260510090051 | 63 | 355 | 0.0 | 1.0 | 0.00 | 0.32 | 0.00 | 94 | 1014.0 |
| 20260510085551 | 63 | 355 | 0.0 | 1.0 | 0.00 | 0.32 | 0.00 | 94 | 1013.9 |
| 20260510085051 | 63 | 355 | 0.0 | 1.0 | 0.00 | 0.32 | 0.00 | 94 | 1013.9 |
| 20260510084549 | 63 | 355 | 0.0 | 1.0 | 0.00 | 0.32 | 0.00 | 94 | 1013.9 |
| 20260510084049 | 63 | 355 | 0.0 | 1.0 | 0.00 | 0.32 | 0.00 | 94 | 1013.7 |
| 20260510083549 | 63 | 355 | 0.0 | 1.0 | 0.00 | 0.32 | 0.00 | 94 | 1013.7 |
| 20260510083047 | 64 | 355 | 0.0 | 1.0 | 0.00 | 0.32 | 0.00 | 94 | 1013.7 |
| 20260510082547 | 64 | 355 | 0.0 | 1.0 | 0.00 | 0.32 | 0.00 | 94 | 1013.6 |
| 20260510082047 | 64 | 355 | 0.0 | 0.0 | 0.00 | 0.32 | 0.00 | 94 | 1013.7 |
| 20260510081547 | 64 | 355 | 0.0 | 0.0 | 0.00 | 0.32 | 0.00 | 94 | 1013.7 |
| 20260510081047 | 64 | 355 | 0.0 | 1.0 | 0.00 | 0.32 | 0.00 | 94 | 1013.7 |
| 20260510080547 | 64 | 355 | 0.0 | 1.0 | 0.00 | 0.32 | 0.00 | 94 | 1013.6 |
| 20260510080046 | 64 | 356 | 0.0 | 1.0 | 0.00 | 0.32 | 0.00 | 94 | 1013.5 |
| 20260510075545 | 64 | 356 | 0.0 | 2.0 | 0.00 | 0.32 | 0.00 | 94 | 1013.6 |
| 20260510075045 | 64 | 347 | 0.0 | 2.0 | 0.00 | 0.32 | 0.00 | 94 | 1013.7 |
| 20260510074545 | 64 | 205 | 0.0 | 1.0 | 0.00 | 0.32 | 0.00 | 94 | 1013.8 |
| 20260510074049 | 63 | 238 | 0.0 | 0.0 | 0.00 | 0.33 | 0.00 | 94 | 1013.6 |
| 20260510074045 | 64 | 205 | 0.0 | 1.0 | 0.00 | 0.33 | 0.00 | 94 | 1013.6 |
| 20260510073045 | 63 | 238 | 0.0 | 1.0 | 0.00 | 0.33 | 0.00 | 94 | 1013.6 |
| 20260510072549 | 63 | 319 | 0.0 | 0.0 | 0.00 | 0.33 | 0.00 | 94 | 1013.3 |
| 20260510072545 | 63 | 238 | 0.0 | 1.0 | 0.00 | 0.33 | 0.00 | 94 | 1013.5 |
| 20260510072044 | 63 | 238 | 0.0 | 1.0 | 0.00 | 0.33 | 0.00 | 94 | 1013.3 |
| 20260510071043 | 63 | 319 | 0.0 | 0.0 | 0.00 | 0.33 | 0.00 | 94 | 1013.2 |
| 20260510070543 | 63 | 318 | 0.0 | 1.0 | 0.00 | 0.33 | 0.00 | 94 | 1013.0 |
| 20260510070047 | 63 | 318 | 0.0 | 0.0 | 0.00 | 0.33 | 0.00 | 94 | 1012.8 |
| 20260510070043 | 63 | 319 | 0.0 | 1.0 | 0.00 | 0.33 | 0.00 | 94 | 1012.8 |
| 20260510065648 | 63 | 318 | 0.0 | 0.0 | 0.00 | 0.33 | 0.00 | 93 | 1012.8 |
| 20260510065043 | 63 | 318 | 0.0 | 0.0 | 0.00 | 0.33 | 0.00 | 94 | 1012.7 |
| 20260510064043 | 64 | 318 | 0.0 | 0.0 | 0.00 | 0.33 | 0.00 | 94 | 1012.8 |
| 20260510063543 | 64 | 318 | 0.0 | 1.0 | 0.00 | 0.33 | 0.00 | 94 | 1012.8 |
| 20260510063042 | 64 | 318 | 0.0 | 1.0 | 0.00 | 0.33 | 0.00 | 94 | 1012.8 |
| 20260510062545 | 64 | 318 | 1.0 | 2.0 | 0.00 | 0.33 | 0.00 | 94 | 1013.1 |
| 20260510062541 | 64 | 318 | 0.0 | 1.0 | 0.00 | 0.33 | 0.00 | 94 | 1012.8 |
| 20260510062041 | 64 | 318 | 0.0 | 2.0 | 0.00 | 0.33 | 0.00 | 94 | 1012.8 |
| 20260510061041 | 64 | 319 | 1.0 | 2.0 | 0.00 | 0.33 | 0.00 | 94 | 1013.0 |
| 20260510060541 | 64 | 342 | 1.0 | 3.0 | 0.00 | 0.33 | 0.00 | 94 | 1013.1 |
| 20260510060041 | 64 | 345 | 1.0 | 4.0 | 0.00 | 0.33 | 0.00 | 94 | 1013.1 |
| 20260510055541 | 64 | 349 | 1.0 | 4.0 | 0.00 | 0.33 | 0.00 | 94 | 1013.1 |
| 20260510055046 | 65 | 17 | 0.0 | 2.0 | 0.00 | 0.33 | 0.00 | 94 | 1013.1 |
| 20260510055042 | 64 | 348 | 0.0 | 2.0 | 0.00 | 0.33 | 0.00 | 94 | 1013.1 |
| 20260510054645 | 65 | 309 | 0.0 | 0.0 | 0.00 | 0.33 | 0.00 | 94 | 1013.2 |
| 20260510053544 | 65 | 309 | 0.0 | 0.0 | 0.00 | 0.33 | 0.00 | 93 | 1013.5 |
| 20260510053539 | 65 | 309 | 0.0 | 0.0 | 0.00 | 0.33 | 0.00 | 94 | 1013.3 |
| 20260510053039 | 65 | 309 | 0.0 | 0.0 | 0.00 | 0.33 | 0.00 | 94 | 1013.4 |
| 20260510052039 | 65 | 309 | 0.0 | 0.0 | 0.00 | 0.33 | 0.00 | 94 | 1013.8 |
| 20260510051537 | 65 | 309 | 0.0 | 0.0 | 0.00 | 0.33 | 0.00 | 94 | 1013.9 |
| 20260510051037 | 65 | 233 | 0.0 | 0.0 | 0.00 | 0.33 | 0.00 | 94 | 1013.9 |
| 20260510050537 | 65 | 232 | 0.0 | 0.0 | 0.00 | 0.33 | 0.00 | 94 | 1013.9 |
| 20260510050038 | 65 | 232 | 0.0 | 0.0 | 0.00 | 0.33 | 0.00 | 93 | 1013.8 |
| 20260510045537 | 65 | 232 | 0.0 | 0.0 | 0.00 | 0.33 | 0.33 | 93 | 1013.8 |
| 20260510045041 | 65 | 232 | 0.0 | 0.0 | 0.00 | 0.33 | 0.33 | 93 | 1013.9 |
| 20260510045037 | 65 | 232 | 0.0 | 0.0 | 0.00 | 0.33 | 0.33 | 93 | 1013.5 |
| 20260510044037 | 65 | 145 | 0.0 | 2.0 | 0.00 | 0.33 | 0.33 | 94 | 1013.6 |
| 20260510043537 | 65 | 145 | 1.0 | 2.0 | 0.00 | 0.33 | 0.33 | 94 | 1014.0 |
| 20260510043038 | 65 | 149 | 0.0 | 2.0 | 0.00 | 0.33 | 0.33 | 94 | 1014.0 |
| 20260510042537 | 65 | 249 | 0.0 | 0.0 | 0.00 | 0.33 | 0.33 | 93 | 1014.4 |
| 20260510042037 | 65 | 249 | 0.0 | 0.0 | 0.00 | 0.33 | 0.33 | 93 | 1014.4 |
| 20260510041536 | 65 | 249 | 0.0 | 1.0 | 0.00 | 0.33 | 0.33 | 93 | 1014.5 |
| 20260510041039 | 66 | 250 | 0.0 | 2.0 | 0.00 | 0.33 | 0.33 | 93 | 1014.4 |
| 20260510041035 | 66 | 249 | 0.0 | 1.0 | 0.00 | 0.33 | 0.33 | 93 | 1014.5 |
| 20260510040035 | 66 | 216 | 1.0 | 2.0 | 0.00 | 0.33 | 0.33 | 94 | 1014.2 |
| 20260510035535 | 66 | 174 | 0.0 | 2.0 | 0.00 | 0.33 | 0.33 | 94 | 1014.1 |
| 20260510035033 | 66 | 154 | 0.0 | 0.0 | 0.00 | 0.33 | 0.33 | 94 | 1014.3 |
| 20260510034534 | 66 | 209 | 0.0 | 0.0 | 0.00 | 0.33 | 0.33 | 94 | 1014.4 |
| 20260510034529 | 65 | 209 | 0.0 | 0.0 | 0.00 | 0.33 | 0.33 | 94 | 1014.5 |
| 20260510034133 | 65 | 209 | 0.0 | 0.0 | 0.00 | 0.33 | 0.33 | 94 | 1014.5 |
| 20260510033027 | 65 | 198 | 0.0 | 0.0 | 0.00 | 0.33 | 0.33 | 93 | 1014.4 |
| 20260510032527 | 66 | 198 | 0.0 | 0.0 | 0.00 | 0.33 | 0.33 | 93 | 1014.1 |
| 20260510032025 | 66 | 198 | 0.0 | 0.0 | 0.00 | 0.33 | 0.33 | 94 | 1014.0 |
| 20260510031525 | 66 | 193 | 0.0 | 0.0 | 0.00 | 0.33 | 0.33 | 93 | 1014.2 |
| 20260510031029 | 66 | 252 | 0.0 | 1.0 | 0.00 | 0.33 | 0.33 | 93 | 1014.2 |
| 20260510031025 | 66 | 269 | 0.0 | 0.0 | 0.00 | 0.33 | 0.33 | 93 | 1014.3 |
| 20260510030023 | 66 | 159 | 0.0 | 1.0 | 0.00 | 0.33 | 0.33 | 94 | 1013.9 |
| 20260510025528 | 66 | 358 | 0.0 | 0.0 | 0.00 | 0.33 | 0.33 | 93 | 1014.0 |
| 20260510025524 | 66 | 358 | 0.0 | 0.0 | 0.00 | 0.33 | 0.33 | 93 | 1013.8 |
| 20260510024523 | 66 | 359 | 0.0 | 0.0 | 0.00 | 0.33 | 0.33 | 93 | 1013.7 |
| 20260510024023 | 66 | 359 | 0.0 | 2.0 | 0.00 | 0.33 | 0.33 | 93 | 1013.8 |
| 20260510023522 | 66 | 358 | 0.0 | 2.0 | 0.00 | 0.33 | 0.33 | 93 | 1013.9 |
| 20260510023021 | 66 | 330 | 1.0 | 2.0 | 0.00 | 0.33 | 0.33 | 93 | 1014.1 |
| 20260510022521 | 66 | 330 | 1.0 | 2.0 | 0.00 | 0.33 | 0.33 | 93 | 1014.2 |
| 20260510022021 | 65 | 318 | 0.0 | 2.0 | 0.00 | 0.33 | 0.33 | 93 | 1014.2 |
| 20260510021521 | 66 | 163 | 0.0 | 0.0 | 0.00 | 0.33 | 0.33 | 93 | 1014.1 |
| 20260510021021 | 66 | 163 | 0.0 | 0.0 | 0.00 | 0.33 | 0.33 | 93 | 1013.9 |
| 20260510020521 | 66 | 163 | 0.0 | 0.0 | 0.00 | 0.33 | 0.33 | 93 | 1013.8 |
| 20260510020021 | 66 | 163 | 0.0 | 0.0 | 0.00 | 0.33 | 0.33 | 93 | 1013.9 |
| 20260510015521 | 66 | 163 | 0.0 | 0.0 | 0.00 | 0.33 | 0.33 | 93 | 1013.8 |
| 20260510015021 | 66 | 163 | 0.0 | 0.0 | 0.00 | 0.33 | 0.33 | 93 | 1013.6 |
| 20260510014521 | 66 | 163 | 0.0 | 0.0 | 0.00 | 0.33 | 0.33 | 93 | 1013.5 |
| 20260510014019 | 66 | 163 | 0.0 | 0.0 | 0.00 | 0.33 | 0.33 | 93 | 1013.4 |
| 20260510013519 | 66 | 163 | 0.0 | 0.0 | 0.00 | 0.33 | 0.33 | 93 | 1013.3 |
| 20260510013019 | 66 | 163 | 0.0 | 0.0 | 0.00 | 0.33 | 0.33 | 93 | 1013.2 |
| 20260510012523 | 66 | 163 | 0.0 | 0.0 | 0.00 | 0.33 | 0.33 | 93 | 1013.2 |
| 20260510012519 | 66 | 163 | 0.0 | 0.0 | 0.00 | 0.33 | 0.33 | 93 | 1013.3 |
| 20260510012123 | 66 | 163 | 0.0 | 0.0 | 0.00 | 0.33 | 0.33 | 92 | 1013.4 |
| 20260510011519 | 66 | 163 | 0.0 | 0.0 | 0.00 | 0.33 | 0.33 | 92 | 1013.3 |
| 20260510010519 | 66 | 163 | 0.0 | 0.0 | 0.00 | 0.33 | 0.33 | 92 | 1013.5 |
| 20260510010023 | 67 | 163 | 0.0 | 0.0 | 0.00 | 0.33 | 0.33 | 92 | 1013.5 |
| 20260510010019 | 66 | 163 | 0.0 | 0.0 | 0.00 | 0.33 | 0.33 | 92 | 1013.5 |
| 20260510005621 | 66 | 163 | 0.0 | 0.0 | 0.00 | 0.33 | 0.33 | 92 | 1013.5 |
| 20260510004516 | 67 | 163 | 0.0 | 0.0 | 0.00 | 0.33 | 0.33 | 92 | 1013.5 |
| 20260510004017 | 67 | 163 | 0.0 | 0.0 | 0.00 | 0.33 | 0.33 | 92 | 1013.5 |
| 20260510003517 | 67 | 163 | 0.0 | 0.0 | 0.00 | 0.33 | 0.33 | 92 | 1013.2 |
| 20260510003014 | 67 | 118 | 0.0 | 0.0 | 0.00 | 0.33 | 0.33 | 91 | 1013.1 |
| 20260510002517 | 67 | 118 | 0.0 | 0.0 | 0.00 | 0.33 | 0.33 | 91 | 1013.1 |
| 20260510002513 | 67 | 118 | 0.0 | 0.0 | 0.00 | 0.33 | 0.33 | 91 | 1012.8 |
| 20260510001513 | 67 | 118 | 0.0 | 0.0 | 0.00 | 0.33 | 0.33 | 91 | 1012.7 |
| 20260510001011 | 67 | 119 | 0.0 | 0.0 | 0.00 | 0.33 | 0.33 | 91 | 1012.8 |
| 20260510000511 | 67 | 118 | 0.0 | 1.0 | 0.00 | 0.33 | 0.33 | 91 | 1012.8 |
| 20260510000008 | 67 | 118 | 0.0 | 2.0 | 0.00 | 0.33 | 0.33 | 90 | 1012.8 |
| 20260509235513 | 68 | 199 | 1.0 | 5.0 | 0.00 | 0.33 | 0.33 | 90 | 1012.9 |
| 20260509235509 | 68 | 118 | 1.0 | 3.0 | 0.00 | 0.33 | 0.33 | 90 | 1012.8 |
| 20260509234508 | 68 | 158 | 1.0 | 5.0 | 0.00 | 0.33 | 0.33 | 90 | 1012.6 |
| 20260509234009 | 68 | 217 | 0.0 | 0.0 | 0.00 | 0.33 | 0.33 | 90 | 1013.0 |
| 20260509233507 | 68 | 210 | 0.0 | 0.0 | 0.00 | 0.34 | 0.33 | 90 | 1012.9 |
| 20260509233006 | 68 | 195 | 0.0 | 2.0 | 0.00 | 0.34 | 0.33 | 90 | 1012.8 |
| 20260509232505 | 68 | 142 | 1.0 | 2.0 | 0.00 | 0.34 | 0.33 | 90 | 1012.7 |
| 20260509232005 | 68 | 134 | 2.0 | 3.0 | 0.00 | 0.34 | 0.33 | 90 | 1012.6 |
| 20260509231504 | 68 | 158 | 2.0 | 3.0 | 0.00 | 0.34 | 0.33 | 90 | 1012.6 |
| 20260509231005 | 68 | 166 | 1.0 | 3.0 | 0.00 | 0.34 | 0.33 | 90 | 1012.5 |
| 20260509230503 | 68 | 90 | 1.0 | 2.0 | 0.00 | 0.35 | 0.33 | 89 | 1012.6 |
| 20260509230003 | 68 | 209 | 1.0 | 2.0 | 0.00 | 0.35 | 0.33 | 90 | 1012.7 |
| 20260509225503 | 68 | 162 | 0.0 | 2.0 | 0.00 | 0.35 | 0.33 | 90 | 1012.6 |
| 20260509225001 | 68 | 228 | 0.0 | 1.0 | 0.00 | 0.35 | 0.33 | 90 | 1012.5 |
| 20260509224458 | 68 | 152 | 1.0 | 3.0 | 0.00 | 0.36 | 0.33 | 90 | 1012.6 |
| 20260509223958 | 68 | 150 | 1.0 | 3.0 | 0.00 | 0.36 | 0.33 | 90 | 1012.3 |
| 20260509223503 | 68 | 240 | 0.0 | 3.0 | 0.00 | 0.36 | 0.33 | 89 | 1012.5 |
| 20260509223459 | 68 | 169 | 0.0 | 2.0 | 0.00 | 0.36 | 0.33 | 90 | 1012.4 |
| 20260509222458 | 68 | 224 | 1.0 | 3.0 | 0.00 | 0.37 | 0.33 | 89 | 1012.4 |
| 20260509221959 | 68 | 147 | 0.0 | 2.0 | 0.00 | 0.38 | 0.33 | 89 | 1012.3 |
| 20260509221458 | 68 | 207 | 1.0 | 3.0 | 0.00 | 0.39 | 0.33 | 89 | 1012.3 |
| 20260509220958 | 68 | 222 | 1.0 | 4.0 | 0.00 | 0.40 | 0.33 | 89 | 1012.4 |
| 20260509220457 | 68 | 200 | 0.0 | 4.0 | 0.00 | 0.42 | 0.33 | 89 | 1012.5 |
| 20260509215957 | 68 | 211 | 0.0 | 2.0 | 0.00 | 0.43 | 0.33 | 89 | 1012.3 |
| 20260509215456 | 68 | 211 | 0.0 | 2.0 | 0.00 | 0.44 | 0.33 | 88 | 1012.4 |
| 20260509214957 | 68 | 321 | 0.0 | 0.0 | 0.00 | 0.45 | 0.33 | 89 | 1012.4 |
| 20260509214455 | 68 | 321 | 0.0 | 0.0 | 0.00 | 0.46 | 0.33 | 89 | 1012.4 |
| 20260509213952 | 68 | 321 | 0.0 | 0.0 | 0.00 | 0.47 | 0.33 | 89 | 1012.5 |
| 20260509213453 | 68 | 321 | 0.0 | 0.0 | 0.00 | 0.48 | 0.33 | 89 | 1012.4 |
| 20260509212955 | 67 | 321 | 0.0 | 4.0 | 0.00 | 0.50 | 0.33 | 89 | 1012.5 |
| 20260509212950 | 68 | 321 | 0.0 | 0.0 | 0.00 | 0.49 | 0.33 | 89 | 1012.4 |
| 20260509211951 | 68 | 246 | 0.0 | 4.0 | 0.00 | 0.52 | 0.33 | 89 | 1012.4 |
| 20260509211450 | 68 | 324 | 1.0 | 3.0 | 0.00 | 0.55 | 0.33 | 89 | 1012.2 |
| 20260509210951 | 68 | 323 | 1.0 | 3.0 | 0.00 | 0.57 | 0.33 | 89 | 1012.4 |
| 20260509210454 | 68 | 326 | 1.0 | 3.0 | 0.00 | 0.60 | 0.33 | 90 | 1012.3 |
| 20260509210448 | 68 | 338 | 1.0 | 3.0 | 0.00 | 0.58 | 0.33 | 89 | 1012.3 |
| 20260509205949 | 68 | 335 | 1.0 | 3.0 | 0.00 | 0.59 | 0.33 | 90 | 1012.2 |
| 20260509204948 | 68 | 312 | 0.0 | 3.0 | 0.00 | 0.62 | 0.33 | 91 | 1012.3 |
| 20260509204445 | 68 | 357 | 0.0 | 1.0 | 0.00 | 0.63 | 0.33 | 91 | 1012.3 |
| 20260509203942 | 68 | 356 | 1.0 | 4.0 | 0.00 | 0.64 | 0.33 | 91 | 1012.1 |
| 20260509203438 | 67 | 315 | 2.0 | 6.0 | 0.00 | 0.66 | 0.33 | 91 | 1012.1 |
| 20260509202939 | 67 | 352 | 1.0 | 6.0 | 0.00 | 0.67 | 0.33 | 91 | 1011.9 |
| 20260509202438 | 67 | 334 | 1.0 | 4.0 | 0.00 | 0.68 | 0.33 | 92 | 1011.8 |
| 20260509201944 | 67 | 315 | 1.0 | 4.0 | 0.00 | 0.69 | 0.33 | 92 | 1011.6 |
| 20260509201439 | 67 | 32 | 1.0 | 3.0 | 0.00 | 0.70 | 0.33 | 91 | 1011.5 |
| 20260509200941 | 67 | 11 | 2.0 | 5.0 | 0.00 | 0.70 | 0.33 | 92 | 1011.6 |
| 20260509200937 | 67 | 321 | 2.0 | 5.0 | 0.00 | 0.70 | 0.33 | 92 | 1011.6 |
| 20260509200541 | 67 | 328 | 2.0 | 5.0 | 0.00 | 0.71 | 0.33 | 92 | 1011.6 |
| 20260509195436 | 67 | 332 | 1.0 | 5.0 | 0.00 | 0.71 | 0.33 | 92 | 1011.5 |
| 20260509194937 | 67 | 325 | 0.0 | 2.0 | 0.00 | 0.71 | 0.33 | 92 | 1011.5 |
| 20260509194436 | 67 | 246 | 0.0 | 2.0 | 0.00 | 0.71 | 0.33 | 92 | 1011.3 |
| 20260509193936 | 67 | 269 | 0.0 | 2.0 | 0.00 | 0.71 | 0.33 | 92 | 1011.2 |
| 20260509193437 | 67 | 262 | 0.0 | 3.0 | 0.00 | 0.71 | 0.33 | 92 | 1011.1 |
| 20260509192936 | 67 | 146 | 0.0 | 3.0 | 0.00 | 0.71 | 0.33 | 92 | 1011.4 |
| 20260509192439 | 67 | 165 | 1.0 | 3.0 | 0.00 | 0.71 | 0.33 | 93 | 1011.5 |
| 20260509192435 | 67 | 202 | 1.0 | 3.0 | 0.00 | 0.71 | 0.33 | 92 | 1011.7 |
| 20260509191434 | 67 | 255 | 1.0 | 4.0 | 0.00 | 0.71 | 0.33 | 92 | 1011.7 |
| 20260509190932 | 67 | 44 | 1.0 | 4.0 | 0.00 | 0.72 | 0.33 | 93 | 1011.9 |
| 20260509190432 | 67 | 193 | 1.0 | 2.0 | 0.00 | 0.72 | 0.33 | 93 | 1011.8 |
| 20260509185932 | 67 | 326 | 1.0 | 2.0 | 0.00 | 0.72 | 0.33 | 93 | 1011.8 |
| 20260509185436 | 66 | 155 | 0.0 | 1.0 | 0.00 | 0.72 | 0.33 | 93 | 1011.4 |
| 20260509185432 | 66 | 155 | 1.0 | 2.0 | 0.00 | 0.72 | 0.33 | 92 | 1011.6 |
| 20260509185037 | 66 | 157 | 0.0 | 2.0 | 0.00 | 0.72 | 0.33 | 93 | 1011.6 |
| 20260509183932 | 66 | 147 | 0.0 | 2.0 | 0.00 | 0.73 | 0.33 | 92 | 1011.5 |
| 20260509183431 | 66 | 165 | 1.0 | 3.0 | 0.00 | 0.73 | 0.33 | 93 | 1011.6 |
| 20260509182930 | 66 | 165 | 1.0 | 3.0 | 0.00 | 0.74 | 0.33 | 93 | 1011.6 |
| 20260509182430 | 66 | 160 | 0.0 | 2.0 | 0.00 | 0.75 | 0.33 | 92 | 1011.6 |
| 20260509181935 | 66 | 41 | 2.0 | 4.0 | 0.01 | 0.80 | 0.33 | 92 | 1011.7 |
| 20260509181930 | 66 | 335 | 1.0 | 2.0 | 0.00 | 0.76 | 0.33 | 92 | 1011.9 |
| 20260509181430 | 65 | 32 | 1.0 | 4.0 | 0.00 | 0.77 | 0.33 | 92 | 1011.7 |
| 20260509180430 | 65 | 263 | 3.0 | 10.0 | 0.01 | 0.80 | 0.33 | 92 | 1011.8 |
| 20260509175930 | 66 | 353 | 5.0 | 11.0 | 0.01 | 0.81 | 0.33 | 92 | 1011.8 |
| 20260509175432 | 66 | 336 | 5.0 | 13.0 | 0.01 | 0.82 | 0.33 | 92 | 1011.4 |
| 20260509174934 | 65 | 145 | 7.0 | 12.0 | 0.01 | 0.83 | 0.33 | 92 | 1010.1 |
| 20260509174930 | 66 | 332 | 5.0 | 13.0 | 0.01 | 0.82 | 0.33 | 92 | 1011.6 |
| 20260509173928 | 65 | 134 | 8.0 | 13.0 | 0.02 | 0.83 | 0.33 | 92 | 1009.6 |
| 20260509173428 | 65 | 167 | 7.0 | 13.0 | 0.02 | 0.83 | 0.33 | 92 | 1010.0 |
| 20260509172928 | 65 | 144 | 6.0 | 12.0 | 0.02 | 0.83 | 0.33 | 93 | 1011.5 |
| 20260509172428 | 65 | 174 | 5.0 | 12.0 | 0.03 | 0.83 | 0.33 | 93 | 1012.1 |
| 20260509172033 | 65 | 179 | 8.0 | 21.0 | 0.03 | 0.83 | 0.33 | 93 | 1012.5 |
| 20260509171532 | 65 | 200 | 11.0 | 21.0 | 0.03 | 0.82 | 0.32 | 93 | 1012.2 |
| 20260509171032 | 65 | 139 | 11.0 | 19.0 | 0.03 | 0.82 | 0.32 | 93 | 1012.2 |
| 20260509165928 | 65 | 151 | 8.0 | 19.0 | 0.04 | 0.82 | 0.32 | 93 | 1012.2 |
| 20260509165428 | 65 | 158 | 7.0 | 13.0 | 0.05 | 0.82 | 0.32 | 93 | 1012.7 |
| 20260509164926 | 65 | 183 | 5.0 | 11.0 | 0.06 | 0.82 | 0.32 | 93 | 1012.8 |
| 20260509164426 | 65 | 172 | 5.0 | 9.0 | 0.07 | 0.82 | 0.32 | 93 | 1012.7 |
| 20260509163926 | 65 | 149 | 6.0 | 12.0 | 0.07 | 0.81 | 0.31 | 93 | 1013.0 |
| 20260509163426 | 65 | 141 | 7.0 | 12.0 | 0.09 | 0.81 | 0.31 | 93 | 1013.2 |
| 20260509162926 | 65 | 148 | 7.0 | 12.0 | 0.11 | 0.81 | 0.31 | 93 | 1013.4 |
| 20260509162426 | 65 | 124 | 7.0 | 12.0 | 0.11 | 0.80 | 0.30 | 93 | 1013.5 |
| 20260509161926 | 65 | 129 | 7.0 | 11.0 | 0.13 | 0.80 | 0.30 | 94 | 1013.6 |
| 20260509161425 | 65 | 155 | 6.0 | 10.0 | 0.13 | 0.80 | 0.30 | 93 | 1013.8 |
| 20260509160924 | 65 | 170 | 6.0 | 10.0 | 0.14 | 0.79 | 0.29 | 93 | 1014.0 |
| 20260509160423 | 65 | 177 | 5.0 | 9.0 | 0.15 | 0.79 | 0.29 | 93 | 1013.9 |
| 20260509155924 | 65 | 157 | 3.0 | 8.0 | 0.15 | 0.78 | 0.28 | 94 | 1014.4 |
| 20260509155428 | 65 | 205 | 5.0 | 8.0 | 0.14 | 0.76 | 0.26 | 93 | 1014.1 |
| 20260509155424 | 65 | 158 | 4.0 | 8.0 | 0.14 | 0.77 | 0.27 | 93 | 1014.4 |
| 20260509154427 | 65 | 179 | 5.0 | 8.0 | 0.14 | 0.75 | 0.25 | 94 | 1014.1 |
| 20260509153924 | 65 | 174 | 4.0 | 7.0 | 0.14 | 0.74 | 0.24 | 94 | 1014.3 |
| 20260509153423 | 65 | 170 | 3.0 | 6.0 | 0.12 | 0.72 | 0.22 | 94 | 1014.3 |